Location: Brunembert
(50.7122°N, 1.8935°E)
Time: 03:19:56
(UTC+00:00)

Cosmos 2221 - Pass Details

Date: 22 April 2021
Orbit: 593 x 615 km, 82.5° (Epoch: 06 May)

Event Time Altitude Azimuth Distance (km) Brightness Sun altitude
Exits shadow 21:41:54 58° 167° (SSE) 695 2.4 -20.8°
Maximum altitude 21:42:39 78° 98° (E) 615 2.3 -20.9°
Drops below altitude 10° 21:46:57 10° 13° (NNE) 1,947 5.7 -21.2°
Sets 21:49:10 0° 12° (NNE) 2,857 6.7 -21.4°
